Hourly Data Report for October 04, 2017

All times are specified in Local Standard Time (LST). Add 1 hour to adjust for Daylight Saving Time where and when it is observed.

REVELSTOKE A
BRITISH COLUMBIA

50°58'00.000" N
118°11'00.000" W
444.70 m
1176745
71685
YRV

Download Data

Hourly Data (October 2017)
Hourly Data Report for October 4, 2017
Temp Definition
°C
Dew Point Temp Definition
°C
Rel Hum Definition
%
Wind Dir Definition
10's deg

Wind Spd Definition
km/h
Visibility Definition
km
Stn Press Definition
kPa
Hmdx Definition


Wind Chill Definition


Weather Definition


TIME
00:00 Legend Double Dagger 2.6 1.5 93   0 16.1 97.43     LegendNANA
01:00 Legend Double Dagger 1.9 0.9 93   0 16.1 97.45     LegendNANA
02:00 Legend Double Dagger 2.7 1.7 93   0 16.1 97.47     LegendNANA
03:00 Legend Double Dagger 1.9 1.2 95 LegendMM 4 16.1 97.48     LegendNANA
04:00 Legend Double Dagger 1.5 1.1 97 LegendMM 4 16.1 97.47     LegendNANA
05:00 Legend Double Dagger 1.6 1.2 97 LegendMM 4 16.1 97.46     LegendNANA
06:00 Legend Double Dagger 1.1 0.5 96   0 16.1 97.44     LegendNANA
07:00 Legend Double Dagger 1.1 0.7 97   0 16.1 97.42     LegendNANA
08:00 Legend Double Dagger 2.9 2.2 95 LegendMM 4 16.1 97.39     LegendNANA
09:00 Legend Double Dagger 6.5 1.4 70 LegendMM 4 16.1 97.30     LegendNANA
10:00 Legend Double Dagger 8.8 0.6 56 36 5 16.1 97.22     LegendNANA
11:00 Legend Double Dagger 12.6 0.8 44 31 17 16.1 97.10     LegendNANA
12:00 Legend Double Dagger 12.1 1.3 48 30 18 16.1 96.99     LegendNANA
13:00 Legend Double Dagger 14.1 0.9 41 32 17 16.1 96.88     LegendNANA
14:00 Legend Double Dagger 16.1 1.9 38 31 13 16.1 96.82     LegendNANA
15:00 Legend Double Dagger 16.1 4.0 44 35 9 16.1 96.78     LegendNANA
16:00 Legend Double Dagger 13.6 5.4 57 25 5 16.1 96.79     LegendNANA
17:00 Legend Double Dagger 12.2 2.6 52 16 13 16.1 96.85     LegendNANA
18:00 Legend Double Dagger 8.0 4.0 76 LegendMM 4 16.1 96.94     LegendNANA
19:00 Legend Double Dagger 6.6 4.5 87 LegendMM 4 16.1 96.99     LegendNANA
20:00 Legend Double Dagger 6.0 4.3 89 LegendMM 4 16.1 97.02     LegendNANA
21:00 Legend Double Dagger 5.1 4.1 93   0 16.1 97.03     LegendNANA
22:00 Legend Double Dagger 5.3 4.1 92   0 16.1 97.06     LegendNANA
23:00 Legend Double Dagger 4.6 3.7 94 1 4 16.1 97.07     LegendNANA

Notes on Data Quality.

Legend

  • E = Estimated
  • M = Missing
  • NA = Not Available
  • ‡ = Partner data that is not subject to review by the National Climate Archives
Date modified: